User: anonymous   Login
Location: Newark
(53.2000°N, 6.1000°W)
Time: 21:45:28
(UTC+00:00)
Language:

ISS - Orbit

View from above orbital plane
View from above orbital plane
View from above satellite
View from above satellite

Ground track
Ground track

The orbit data is extracted from the following two-line orbital elements,

1 25544U 98067A   20303.53528079  .00001917  00000-0  42437-4 0  9999
2 25544  51.6459  43.7004 0001723  73.4513  38.1823 15.49351965252840
Epoch (UTC): 29 October 2020 12:50:48
Eccentricity: 0.0001723
inclination: 51.6459°
perigee height: 417 km
apogee height: 420 km
right ascension of ascending node: 43.7004°
argument of perigee: 73.4513°
revolutions per day: 15.49351965
mean anomaly at epoch: 38.1823°
orbit number at epoch: 25284

The dashed part of the orbit path shows where the satellite is in the earth's shadow,  

DLR